DW2363 Weather Reports


time (UTC)temp
C
wind
direction
speed
KPH
gust
KPH
rain 1hr
cm
rain 24hr
cm
rain mn
cm
humidity
%
barometer
mb
20260905211539 25 175 11.3 19.3 0.00 0.00 0.00 42 1015.1
20260905211039 25 139 11.3 22.5 0.00 0.00 0.00 44 1015.1
20260905210538 24 150 9.7 22.5 0.00 0.00 0.00 41 1015.1
20260905210038 25 170 11.3 20.9 0.00 0.00 0.00 40 1015.2
20260905205539 25 172 12.9 22.5 0.00 0.00 0.00 37 1015.3
20260905205039 25 133 11.3 22.5 0.00 0.00 0.00 40 1015.2
20260905204538 25 172 11.3 19.3 0.00 0.00 0.00 42 1015.3
20260905204044 25 156 9.7 19.3 0.00 0.00 0.00 45 1015.3
20260905204038 25 154 9.7 19.3 0.00 0.00 0.00 40 1015.3
20260905203038 25 163 9.7 20.9 0.00 0.00 0.00 44 1015.3
20260905202539 25 178 11.3 20.9 0.00 0.00 0.00 39 1015.3
20260905202039 25 122 12.9 19.3 0.00 0.00 0.00 36 1015.3
20260905201545 25 165 8.0 14.5 0.00 0.00 0.00 43 1015.4
20260905201539 25 174 9.7 19.3 0.00 0.00 0.00 39 1015.4
20260905200539 25 165 9.7 14.5 0.00 0.00 0.00 40 1015.4
20260905200038 25 160 11.3 17.7 0.00 0.00 0.00 44 1015.6
20260905195537 25 155 11.3 20.9 0.00 0.00 0.00 47 1015.6
20260905195036 25 177 9.7 20.9 0.00 0.00 0.00 46 1015.7
20260905194536 25 150 8.0 16.1 0.00 0.00 0.00 47 1015.7
20260905194036 25 180 8.0 19.3 0.00 0.00 0.00 46 1015.7
20260905193536 25 137 8.0 19.3 0.00 0.00 0.00 40 1015.6
20260905193035 25 157 8.0 19.3 0.00 0.00 0.00 42 1015.6
20260905192534 25 118 8.0 19.3 0.00 0.00 0.00 42 1015.7
20260905192033 24 150 8.0 19.3 0.00 0.00 0.00 51 1015.8
20260905191535 24 190 9.7 19.3 0.00 0.00 0.00 46 1015.9
20260905191035 24 144 12.9 19.3 0.00 0.00 0.00 48 1015.8
20260905190537 24 140 9.7 16.1 0.00 0.00 0.00 37 1016.0
20260905190533 25 142 11.3 19.3 0.00 0.00 0.00 38 1015.9
20260905185532 24 169 9.7 16.1 0.00 0.00 0.00 42 1015.9
20260905185032 24 127 8.0 16.1 0.00 0.00 0.00 41 1016.0
20260905184532 24 90 9.7 16.1 0.00 0.00 0.00 40 1016.2
20260905184033 24 139 8.0 19.3 0.00 0.00 0.00 48 1016.2
20260905183532 24 132 8.0 19.3 0.00 0.00 0.00 47 1016.0
20260905183032 24 139 9.7 16.1 0.00 0.00 0.00 41 1016.2
20260905182533 24 128 9.7 16.1 0.00 0.00 0.00 38 1016.2
20260905182033 24 113 8.0 16.1 0.00 0.00 0.00 38 1016.2
20260905181532 24 153 6.4 16.1 0.00 0.00 0.00 37 1016.2
20260905181030 23 115 6.4 12.9 0.00 0.00 0.00 33 1016.2
20260905180528 23 155 8.0 16.1 0.00 0.00 0.00 31 1016.3
20260905180028 23 111 8.0 16.1 0.00 0.00 0.00 31 1016.2
20260905175528 23 124 8.0 14.5 0.00 0.00 0.00 36 1016.0
20260905175027 23 106 9.7 17.7 0.00 0.00 0.00 30 1016.0
20260905174526 23 123 11.3 19.3 0.00 0.00 0.00 38 1016.0
20260905174027 22 115 12.9 22.5 0.00 0.00 0.00 41 1015.9
20260905173531 22 100 16.1 22.5 0.00 0.00 0.00 34 1015.8
20260905173526 22 94 14.5 22.5 0.00 0.00 0.00 40 1015.9
20260905173133 22 106 14.5 22.5 0.00 0.00 0.00 36 1015.7
20260905172030 22 103 14.5 20.9 0.00 0.00 0.00 39 1015.7
20260905172026 22 119 14.5 22.5 0.00 0.00 0.00 39 1015.8
20260905171633 22 127 14.5 19.3 0.00 0.00 0.00 36 1015.6
20260905170525 23 117 14.5 19.3 0.00 0.00 0.00 36 1015.5
20260905170027 23 109 12.9 19.3 0.00 0.00 0.00 32 1015.6
20260905165520 22 120 12.9 20.9 0.00 0.00 0.00 31 1015.6
20260905165020 22 88 12.9 20.9 0.00 0.00 0.00 28 1015.5
20260905164520 22 94 12.9 19.3 0.00 0.00 0.00 26 1015.5
20260905164020 22 103 14.5 19.3 0.00 0.00 0.00 30 1015.4
20260905163520 22 65 14.5 17.7 0.00 0.00 0.00 31 1015.4
20260905163020 22 71 12.9 17.7 0.00 0.00 0.00 34 1015.3
20260905162519 22 70 11.3 16.1 0.00 0.00 0.00 35 1015.3
20260905162020 22 91 9.7 14.5 0.00 0.00 0.00 31 1015.2
20260905161520 22 55 9.7 14.5 0.00 0.00 0.00 32 1015.3
20260905161020 22 67 8.0 14.5 0.00 0.00 0.00 28 1015.2
20260905160520 22 60 8.0 12.9 0.00 0.00 0.00 34 1015.2
20260905160020 22 97 8.0 17.7 0.00 0.00 0.00 32 1015.2
20260905155520 21 55 9.7 17.7 0.00 0.00 0.00 34 1015.1
20260905155020 21 63 9.7 16.1 0.00 0.00 0.00 36 1015.1
20260905154517 21 60 8.0 19.3 0.00 0.00 0.00 34 1015.1
20260905154019 21 81 8.0 19.3 0.00 0.00 0.00 45 1015.1
20260905153518 21 89 11.3 19.3 0.00 0.00 0.00 38 1015.0
20260905153019 20 74 12.9 19.3 0.00 0.00 0.00 38 1015.0
20260905152518 20 85 11.3 16.1 0.00 0.00 0.00 40 1015.0
20260905152016 20 96 12.9 19.3 0.00 0.00 0.00 41 1015.0
20260905151516 20 94 14.5 19.3 0.00 0.00 0.00 39 1015.0
20260905151024 20 87 14.5 19.3 0.00 0.00 0.00 37 1014.8
20260905151017 20 95 14.5 19.3 0.00 0.00 0.00 33 1014.9
20260905150016 20 82 14.5 19.3 0.00 0.00 0.00 40 1014.6
20260905145516 20 89 14.5 19.3 0.00 0.00 0.00 40 1014.6
20260905145015 20 94 14.5 19.3 0.00 0.00 0.00 37 1014.5
20260905144515 20 85 14.5 19.3 0.00 0.00 0.00 41 1014.5
20260905144014 20 93 16.1 19.3 0.00 0.00 0.00 38 1014.5
20260905143518 19 88 17.7 20.9 0.00 0.00 0.00 41 1014.4
20260905143514 19 88 16.1 19.3 0.00 0.00 0.00 36 1014.3
20260905143122 19 90 16.1 22.5 0.00 0.00 0.00 38 1014.3
20260905142622 18 85 14.5 22.5 0.00 0.00 0.00 49 1014.4
20260905142122 18 88 16.1 22.5 0.00 0.00 0.00 38 1014.2
20260905141512 18 74 16.1 22.5 0.00 0.00 0.00 47 1014.3
20260905140511 18 86 16.1 19.3 0.00 0.00 0.00 49 1014.2
20260905140011 18 75 16.1 19.3 0.00 0.00 0.00 48 1014.2
20260905135511 18 90 12.9 19.3 0.00 0.00 0.00 44 1014.1
20260905135012 18 78 11.3 19.3 0.00 0.00 0.00 53 1014.1
20260905134512 18 79 11.3 19.3 0.00 0.00 0.00 55 1014.0
20260905134011 18 49 11.3 19.3 0.00 0.00 0.00 63 1014.0
20260905133511 18 67 14.5 20.9 0.00 0.00 0.00 46 1013.9
20260905133011 18 76 17.7 22.5 0.00 0.00 0.00 45 1013.9
20260905132511 18 74 17.7 22.5 0.00 0.00 0.00 37 1013.8
20260905132012 18 82 14.5 22.5 0.00 0.00 0.00 36 1013.7
20260905131511 18 71 12.9 17.7 0.00 0.00 0.00 50 1013.7
20260905131011 18 51 12.9 19.3 0.00 0.00 0.00 53 1013.7
20260905130512 18 57 14.5 19.3 0.00 0.00 0.00 45 1013.5
20260905130013 18 74 14.5 19.3 0.00 0.00 0.00 39 1013.6
20260905125511 18 76 14.5 19.3 0.00 0.00 0.00 41 1013.6
20260905125015 18 66 11.3 20.9 0.00 0.00 0.00 49 1013.7
20260905125011 18 92 12.9 20.9 0.00 0.00 0.00 43 1013.7
20260905124011 18 72 9.7 16.1 0.00 0.00 0.00 56 1013.7
20260905123511 18 59 9.7 16.1 0.00 0.00 0.00 52 1013.7
20260905123014 18 57 11.3 17.7 0.00 0.00 0.00 59 1013.7
20260905123010 18 61 11.3 17.7 0.00 0.00 0.00 49 1013.7
20260905122009 18 60 9.7 14.5 0.00 0.00 0.00 59 1013.7
20260905121509 17 63 8.0 14.5 0.00 0.00 0.00 53 1013.7
20260905121009 17 71 6.4 14.5 0.00 0.00 0.00 58 1013.7
20260905120509 17 46 8.0 12.9 0.00 0.00 0.00 73 1013.7
20260905120008 17 35 9.7 14.5 0.00 0.00 0.00 76 1013.7
20260905115509 17 40 9.7 14.5 0.00 0.00 0.00 72 1013.7
20260905115009 17 40 9.7 14.5 0.00 0.00 0.00 76 1013.7
20260905114513 17 37 6.4 11.3 0.00 0.00 0.00 66 1013.6
20260905114509 17 40 8.0 12.9 0.00 0.00 0.00 75 1013.7
20260905113510 18 47 6.4 11.3 0.00 0.00 0.00 62 1013.7
20260905113007 17 82 4.8 11.3 0.00 0.00 0.00 49 1013.8
20260905112506 17 96 4.8 11.3 0.00 0.00 0.00 59 1013.9
20260905112011 17 23 4.8 8.0 0.00 0.00 0.00 70 1013.8
20260905112007 17 74 4.8 11.3 0.00 0.00 0.00 63 1013.8
20260905111007 17 28 6.4 8.0 0.00 0.00 0.00 61 1013.8
20260905110508 17 55 4.8 8.0 0.00 0.00 0.00 68 1013.8
20260905110008 17 37 1.6 6.4 0.00 0.00 0.00 70 1013.8
20260905105507 16 31 1.6 8.0 0.00 0.00 0.00 73 1013.8
20260905105007 16 34 3.2 9.7 0.00 0.00 0.00 74 1013.9
20260905104507 17 32 4.8 9.7 0.00 0.00 0.00 80 1013.9
20260905104010 17 23 4.8 9.7 0.00 0.00 0.00 78 1013.9
20260905104006 17 15 4.8 9.7 0.00 0.00 0.00 78 1013.9
20260905103005 17 33 3.2 9.7 0.00 0.00 0.00 77 1013.9
20260905102511 17 34 1.6 8.0 0.00 0.00 0.00 67 1013.9
20260905102505 17 38 1.6 9.7 0.00 0.00 0.00 76 1013.9
20260905101506 17 44 1.6 4.8 0.00 0.00 0.00 55 1013.9
20260905101005 17 15 1.6 9.7 0.00 0.00 0.00 75 1013.9
20260905100504 17 14 1.6 9.7 0.00 0.00 0.00 76 1013.9
20260905100005 17 14 4.8 9.7 0.00 0.00 0.00 74 1013.9
20260905095503 17 17 3.2 9.7 0.00 0.00 0.00 77 1014.0
20260905095003 17 34 0.0 8.0 0.00 0.00 0.00 60 1013.9
20260905094507 17 54 0.0 8.0 0.00 0.00 0.00 69 1013.9
20260905094503 17 68 1.6 8.0 0.00 0.00 0.00 61 1013.9
20260905093507 17 21 3.2 8.0 0.00 0.00 0.00 73 1013.9
20260905093503 17 43 1.6 6.4 0.00 0.00 0.00 65 1014.0
20260905092503 17 47 4.8 8.0 0.00 0.00 0.00 78 1014.0
20260905092007 17 70 4.8 9.7 0.00 0.00 0.00 66 1014.0
20260905092003 17 60 4.8 9.7 0.00 0.00 0.00 72 1014.0
20260905091003 17 64 8.0 9.7 0.00 0.00 0.00 64 1014.0
20260905090502 17 57 8.0 11.3 0.00 0.00 0.00 71 1014.1
20260905090002 17 48 9.7 12.9 0.00 0.00 0.00 78 1014.1
20260905085505 17 41 11.3 14.5 0.00 0.00 0.00 81 1014.1
20260905085459 17 33 11.3 16.1 0.00 0.00 0.00 80 1014.1
20260905084458 17 50 12.9 16.1 0.00 0.00 0.00 80 1014.2
20260905083957 17 44 11.3 16.1 0.00 0.00 0.00 80 1014.3
20260905083502 17 42 12.9 16.1 0.00 0.00 0.00 79 1014.3
20260905083457 17 46 11.3 16.1 0.00 0.00 0.00 79 1014.2
20260905082457 17 36 12.9 16.1 0.00 0.00 0.00 78 1014.2
20260905081957 18 35 12.9 16.1 0.00 0.00 0.00 76 1014.2
20260905081457 18 30 11.3 12.9 0.00 0.00 0.00 72 1014.3
20260905080957 18 34 9.7 12.9 0.00 0.00 0.00 69 1014.3
20260905080458 18 39 8.0 12.9 0.00 0.00 0.00 66 1014.4
20260905075957 18 39 8.0 16.1 0.00 0.00 0.00 54 1014.4
20260905075455 18 49 9.7 16.1 0.00 0.00 0.00 54 1014.4
20260905074958 18 42 12.9 16.1 0.00 0.00 0.00 79 1014.3
20260905074954 18 41 11.3 16.1 0.00 0.00 0.00 69 1014.4
20260905074558 18 38 12.9 16.1 0.00 0.00 0.00 76 1014.3
20260905074101 18 38 12.9 16.1 0.00 0.00 0.00 79 1014.3
20260905072950 18 41 12.9 16.1 0.00 0.00 0.00 77 1014.4
20260905072451 18 40 12.9 14.5 0.00 0.00 0.00 75 1014.3
20260905071951 18 46 14.5 16.1 0.00 0.00 0.00 73 1014.4
20260905071455 18 44 11.3 14.5 0.00 0.00 0.00 69 1014.3
20260905071451 18 51 12.9 16.1 0.00 0.00 0.00 71 1014.3
20260905070454 19 41 9.7 14.5 0.00 0.00 0.00 65 1014.3
20260905070450 19 44 9.7 14.5 0.00 0.00 0.00 67 1014.3
20260905065448 19 30 9.7 14.5 0.00 0.00 0.00 63 1014.3
20260905064948 19 44 8.0 11.3 0.00 0.00 0.00 59 1014.2
20260905064447 19 59 8.0 12.9 0.00 0.00 0.00 62 1014.1
20260905063947 19 30 8.0 12.9 0.00 0.00 0.00 58 1014.2
20260905063448 19 53 8.0 11.3 0.00 0.00 0.00 68 1014.1
20260905062950 19 49 11.3 11.3 0.00 0.00 0.00 63 1014.1
20260905062946 19 49 9.7 11.3 0.00 0.00 0.00 64 1014.1
20260905061946 19 53 11.3 11.3 0.00 0.00 0.00 59 1014.2
20260905061446 19 55 9.7 11.3 0.00 0.00 0.00 60 1014.2
20260905060946 19 57 9.7 11.3 0.00 0.00 0.00 64 1014.2
20260905060446 19 40 9.7 12.9 0.00 0.00 0.00 59 1014.2
20260905055946 19 39 9.7 12.9 0.00 0.00 0.00 67 1014.2
20260905055444 19 37 9.7 12.9 0.00 0.00 0.00 68 1014.1
20260905054944 19 47 8.0 11.3 0.00 0.00 0.00 68 1014.2
20260905054444 19 44 6.4 9.7 0.00 0.00 0.00 66 1014.2
20260905053943 19 44 4.8 9.7 0.00 0.00 0.00 66 1014.2
20260905053444 19 55 4.8 6.4 0.00 0.00 0.00 66 1014.2
20260905052944 20 55 4.8 6.4 0.00 0.00 0.00 66 1014.2
20260905052444 20 56 4.8 6.4 0.00 0.00 0.00 65 1014.3
20260905051949 20 41 4.8 8.0 0.00 0.00 0.00 64 1014.3
20260905051944 20 55 4.8 8.0 0.00 0.00 0.00 65 1014.3
20260905050943 20 41 4.8 9.7 0.00 0.00 0.00 61 1014.3
20260905050553 20 9 6.4 12.9 0.00 0.00 0.00 63 1014.2
20260905050447 20 13 6.4 11.3 0.00 0.00 0.00 62 1014.3
20260905050441 20 31 6.4 9.7 0.00 0.00 0.00 62 1014.3
20260905050159 20 10 6.4 12.9 0.00 0.00 0.00 66 1014.2
20260905044442 20 11 8.0 12.9 0.00 0.00 0.00 67 1014.1
20260905043942 20 10 9.7 12.9 0.00 0.00 0.00 68 1014.1
20260905043442 20 9 9.7 12.9 0.00 0.00 0.00 69 1014.0
20260905042942 20 9 8.0 12.9 0.00 0.00 0.00 70 1014.0
20260905042442 19 355 4.8 12.9 0.00 0.00 0.00 71 1013.9
20260905041942 19 355 3.2 6.4 0.00 0.00 0.00 71 1013.9
20260905041442 19 5 4.8 9.7 0.00 0.00 0.00 71 1014.0
20260905040946 20 5 9.7 12.9 0.00 0.00 0.00 71 1013.8
20260905040942 20 5 8.0 12.9 0.00 0.00 0.00 72 1013.9
20260905035946 20 0 9.7 12.9 0.00 0.00 0.00 71 1013.7
20260905035942 20 355 9.7 12.9 0.00 0.00 0.00 71 1013.8
20260905034942 20 0 8.0 12.9 0.00 0.00 0.00 70 1013.7
20260905034442 20 355 8.0 12.9 0.00 0.00 0.00 70 1013.7
20260905033943 20 336 9.7 12.9 0.00 0.00 0.00 69 1013.6
20260905033440 20 349 9.7 12.9 0.00 0.00 0.00 67 1013.5
20260905032940 20 355 8.0 12.9 0.00 0.00 0.00 67 1013.5
20260905032440 20 355 8.0 14.5 0.00 0.00 0.00 66 1013.4
20260905031939 20 5 9.7 14.5 0.00 0.00 0.00 64 1013.5
20260905031437 20 5 11.3 14.5 0.00 0.00 0.00 66 1013.2
20260905030945 20 346 8.0 14.5 0.00 0.00 0.00 67 1013.1
20260905030939 20 355 11.3 14.5 0.00 0.00 0.00 68 1013.2
20260905025936 20 344 6.4 9.7 0.00 0.00 0.00 67 1013.1
20260905025433 20 348 6.4 8.0 0.00 0.00 0.00 67 1013.1
20260905024933 20 334 6.4 11.3 0.00 0.00 0.00 68 1013.2
20260905024434 20 326 4.8 11.3 0.00 0.00 0.00 68 1013.1
20260905023933 20 335 4.8 8.0 0.00 0.00 0.00 69 1013.2
20260905023433 20 314 3.2 6.4 0.00 0.00 0.00 68 1013.1
20260905022934 20 317 1.6 4.8 0.00 0.00 0.00 65 1013.1
20260905022437 20 284 0.0 1.6 0.00 0.00 0.00 63 1013.2
20260905022433 20 286 0.0 3.2 0.00 0.00 0.00 65 1013.2
20260905021434 21 284 0.0 3.2 0.00 0.00 0.00 62 1013.2
20260905020933 21 284 4.8 11.3 0.00 0.00 0.00 62 1013.4
20260905020434 21 283 8.0 12.9 0.00 0.00 0.00 63 1013.4
20260905015933 21 277 6.4 12.9 0.00 0.00 0.00 62 1013.4
20260905015433 21 274 1.6 9.7 0.00 0.00 0.00 62 1013.4
20260905014933 21 293 0.0 4.8 0.00 0.00 0.00 62 1013.4
20260905014433 22 301 1.6 4.8 0.00 0.00 0.00 62 1013.6
20260905013934 22 97 0.0 4.8 0.00 0.00 0.00 64 1013.5
20260905013434 22 315 1.6 4.8 0.00 0.00 0.00 55 1013.4
20260905012933 22 344 1.6 4.8 0.00 0.00 0.00 55 1013.5
20260905012433 22 209 1.6 8.0 0.00 0.00 0.00 62 1013.5
20260905011935 22 178 1.6 8.0 0.00 0.00 0.00 65 1013.5
20260905011433 22 259 1.6 6.4 0.00 0.00 0.00 40 1013.6
20260905010933 21 259 3.2 6.4 0.00 0.00 0.00 41 1013.7
20260905010433 21 250 4.8 8.0 0.00 0.00 0.00 56 1013.6
20260905005938 22 202 4.8 8.0 0.00 0.00 0.00 63 1013.7
20260905005934 22 201 4.8 8.0 0.00 0.00 0.00 60 1013.7
20260905005540 22 183 3.2 8.0 0.00 0.00 0.00 63 1013.6
20260905004433 22 171 1.6 9.7 0.00 0.00 0.00 55 1013.6
20260905003933 22 152 1.6 9.7 0.00 0.00 0.00 43 1013.6
20260905003434 22 184 3.2 9.7 0.00 0.00 0.00 55 1013.6
20260905002937 22 227 3.2 12.9 0.00 0.00 0.00 49 1013.6
20260905002933 22 219 3.2 9.7 0.00 0.00 0.00 49 1013.6
20260905001933 21 219 4.8 12.9 0.00 0.00 0.00 58 1013.7
20260905001434 21 211 6.4 12.9 0.00 0.00 0.00 57 1013.6
20260905000933 22 199 8.0 12.9 0.00 0.00 0.00 70 1013.7
20260905000433 22 202 6.4 11.3 0.00 0.00 0.00 65 1013.7
20260904235933 22 153 4.8 9.7 0.00 0.00 0.00 43 1013.7
20260904235433 22 155 3.2 8.0 0.00 0.00 0.00 34 1013.6
20260904234937 21 220 6.4 12.9 0.00 0.00 0.00 65 1013.7
20260904234931 22 140 3.2 11.3 0.00 0.00 0.00 51 1013.6
20260904233931 21 171 6.4 12.9 0.00 0.00 0.00 70 1013.8
20260904233431 21 185 6.4 11.3 0.00 0.00 0.00 70 1013.8
20260904232931 21 148 6.4 12.9 0.00 0.00 0.00 59 1013.7
20260904232431 21 231 8.0 14.5 0.00 0.00 0.00 66 1013.7
20260904231929 21 190 9.7 17.7 0.00 0.00 0.00 71 1013.7
20260904231429 21 158 11.3 19.3 0.00 0.00 0.00 67 1013.7
20260904230929 21 171 9.7 19.3 0.00 0.00 0.00 64 1013.7
20260904230434 20 163 9.7 16.1 0.00 0.00 0.00 64 1013.8
20260904230429 21 173 9.7 16.1 0.00 0.00 0.00 68 1013.7
20260904225428 20 162 9.7 16.1 0.00 0.00 0.00 65 1013.8
20260904224929 20 171 11.3 16.1 0.00 0.00 0.00 65 1013.8
20260904224429 20 164 11.3 16.1 0.00 0.00 0.00 74 1013.9
20260904223929 20 161 11.3 19.3 0.00 0.00 0.00 69 1013.9
20260904223428 20 179 12.9 19.3 0.00 0.00 0.00 68 1013.9
20260904222931 20 163 11.3 19.3 0.00 0.00 0.00 64 1013.9
20260904222927 20 178 12.9 17.7 0.00 0.00 0.00 72 1013.9
20260904221926 20 157 12.9 19.3 0.00 0.00 0.00 63 1013.9
20260904221427 20 161 12.9 19.3 0.00 0.00 0.00 69 1013.9
20260904220927 20 158 12.9 19.3 0.00 0.00 0.00 66 1013.9
20260904220426 20 163 14.5 22.5 0.00 0.00 0.00 76 1013.8
20260904215927 20 155 14.5 24.1 0.00 0.00 0.00 78 1013.9
20260904215431 20 189 11.3 20.9 0.00 0.00 0.00 77 1013.9
20260904215427 21 159 12.9 24.1 0.00 0.00 0.00 76 1013.9
20260904214427 20 189 11.3 17.7 0.00 0.00 0.00 74 1014.1
20260904213927 20 141 11.3 19.3 0.00 0.00 0.00 74 1014.1
20260904213426 20 175 11.3 19.3 0.00 0.00 0.00 76 1014.0
20260904212927 20 145 12.9 20.9 0.00 0.00 0.00 77 1014.0
20260904212427 19 144 12.9 20.9 0.00 0.00 0.00 77 1014.1
20260904211926 19 151 11.3 19.3 0.00 0.00 0.00 78 1014.0